Regional Weather Roundup
Issued by NWS

Home | Current Version | Previous Version | Graphics & Text | Print | Product List | Glossary On
Versions: 1 2 3 4 5 6 7 8 9 10 11 12 13 14 15 16 17 18 19 20 21 22 23 24 25 26 27 28 29 30 31 32 33 34 35 36 37 38 39 40 41 42 43 44 45 46 47 48 49 50
550
ASUS43 KMPX 182201
RWRMN
WEATHER ROUNDUP FOR MINNESOTA
NATIONAL WEATHER SERVICE TWIN CITIES/CHANHASSEN MN
400 PM CST SAT NOV 18 2017


NOTE: "FAIR" INDICATES FEW OR NO CLOUDS BELOW 12,000 FEET WITH NO
SIGNIFICANT WEATHER AND/OR OBSTRUCTIONS TO VISIBILITY. N/A MEANS
CURRENT SKY AND/OR WEATHER CONDITIONS ARE NOT AVAILABLE.

MNZ060>063-068>070-182300-
   Twin Cities Metro

CITY           SKY/WX    TMP DP  RH WIND       PRES   REMARKS
TWIN CITIES    PTCLDY    32  19  58 NW17G29   29.89R WCI  21
ST PAUL        CLEAR     32  18  56 NW20      29.90R WCI  20
CRYSTAL        CLEAR     31  15  52 NW20G26   29.90R WCI  19
BLAINE         PTCLDY    34  19  55 NW17G23   29.88R WCI  23
LAKEVILLE      CLEAR     30  19  64 NW21G28   29.89R WCI  17
EDEN PRAIRIE   CLEAR     32  18  56 NW17      29.89R WCI  21
SOUTH ST PAUL  CLEAR     33  18  55 NW14G21   29.89R WCI  23
LAKE ELMO      FAIR      32  21  64 NW14G21   29.88R WCI  22
$$
MNZ001>005-007-008-013>017-022>024-027-028-182300-
   Northwest Minnesota

CITY           SKY/WX    TMP DP  RH WIND       PRES   REMARKS
BEMIDJI        FLURRIES  17  10  77 W14       29.96R WCI   2
HALLOCK        CLEAR     18   9  68 NW13      30.00S WCI   4
ROSEAU         CLOUDY    18  10  73 W10G16    29.96R WCI   6
WARROAD        LGT SNOW  16  10  79 W9        29.94S WCI   4
CROOKSTON      CLEAR     19   9  63 NW18G26   30.04R WCI   4
FOSSTON        CLOUDY    18   9  68 W14       29.99S WCI   4
DETROIT LAKES  PTCLDY    21  12  68 NW14G23   30.00R WCI   8
MOORHEAD       CLEAR     21   7  53 NW21      30.05R WCI   6
PARK RAPIDS    CLOUDY    18  10  71 NW21G29   29.95R WCI   1
MAHNOMEN       CLOUDY    18  10  72 NW14      30.00R WCI   4
$$
MNZ006-009>011-018-025>026-182300-
   North Central Minnesota

CITY           SKY/WX    TMP DP  RH WIND       PRES   REMARKS
BAUDETTE       FLURRIES  16   7  67 W14       29.93R WCI   2
FLAG ISLAND    CLOUDY    16   7  67 W15       29.92S WCI   1
INTL FALLS     LGT SNOW  17  10  74 W14       29.90R WCI   3
WASKISH        FLURRIES  18  12  79 W14       29.94S WCI   4
BIG FORK       FLURRIES  18   9  68 W8        29.90R WCI   7
LONGVILLE      CLOUDY    19  10  68 W13G18    29.93R WCI   7
GRAND RAPIDS   FLURRIES  19  12  74 NW14G25   29.92R WCI   6
CRANE LAKE     LGT SNOW  19  14  79 NW3       29.87R
ORR            CLOUDY    18  10  73 NW14G22   29.85R WCI   4
COOK           FLURRIES  19  12  73 W9G18     29.87R WCI   9
WALKER         FLURRIES  17   9  69 NW15G22   29.95R WCI   2
$$
MNZ012-019>021-037-182300-
   Northeast Minnesota

CITY           SKY/WX    TMP DP  RH WIND       PRES   REMARKS
DULUTH         MOCLDY    23  14  68 NW15G29   29.81R WCI  10
ELY            FLURRIES  21  14  73 NW13G18   29.82R WCI   9
HIBBING        CLOUDY    20  13  74 NW10G21   29.86R WCI   9
EVELETH        FLURRIES  19  10  68 NW13G22   29.86R WCI   7
DULUTH HARBOR  CLOUDY    28  18  64 NW15      29.88R WCI  17
TWO HARBORS    CLOUDY    28  18  64 NW10G20   29.80R WCI  19
SILVER BAY     CLOUDY    25  18  74 CALM      29.79R
GRAND MARAIS     N/A     27  18  69 NW8       29.80R WCI  19
G MARAIS ARPRT CLOUDY    18  12  79 NW9G21    29.72R WCI   6
$$
MNZ029>031-032-039>041-046>048-054>057-064-182300-
   West Central Minnesota

CITY           SKY/WX    TMP DP  RH WIND       PRES   REMARKS
FERGUS FALLS   CLEAR     23  10  58 NW21G26   30.05R WCI   8
WHEATON        CLEAR     25   9  50 NW18G24   30.07R WCI  11
MORRIS         CLEAR     27  12  54 NW22G31   30.01R WCI  12
ALEXANDRIA     PTCLDY    22  11  62 NW21G29   29.99R WCI   6
ELBOW LAKE     FAIR      23  11  61 W20G28    30.02R HAZE    WCI   9
WADENA         PTCLDY    18  10  73 NW15G23   29.97R WCI   3
GLENWOOD       CLEAR     23  14  68 NW20G26   29.99R WCI   8
APPLETON       CLEAR     28  10  47 NW22G30   30.03R WCI  15
BENSON         CLEAR     27  12  54 N21G28    30.03R WCI  13
ORTONVILLE     CLEAR     28  12  50 MISG      30.04R
MADISON        CLEAR     32  14  47 NW18G25   30.03R WCI  20
WILLMAR        FAIR      28  18  64 NW21G26   30.00R WCI  15
$$
MNZ033>034-036-042>043-049>051-058-059-182300-
   Central Minnesota

CITY           SKY/WX    TMP DP  RH WIND       PRES   REMARKS
ST CLOUD       CLEAR     27  16  63 NW14G25   29.93R WCI  16
SAUK CENTRE    FAIR      24  14  67 NW18      29.97R WCI   9
PAYNESVILLE    PTCLDY    27  18  69 NW16G24   29.97R WCI  15
AITKIN         CLOUDY    21  12  68 NW10G21   29.89S WCI  10
PINE RIVER     MOCLDY    19  10  68 NW10      29.97R WCI   8
BRAINERD       CLOUDY    24  12  60 NW15G23   29.93R WCI  11
STAPLES        MOCLDY    19  10  68 NW15      29.96R WCI   5
LONG PRAIRIE   FAIR      25  14  63 W15       29.95R WCI  12
LITTLE FALLS   PTCLDY    25   7  46 NW17G25   29.95R WCI  11
LITCHFIELD     CLEAR     28  18  64 NW15G26   29.96R WCI  17
BUFFALO        CLEAR     29  17  59 NW10      29.94R WCI  20
MAPLE LAKE     CLEAR     30  19  64 NW13      29.94R WCI  20
HUTCHINSON     CLEAR     30  19  63 NW22G30   29.96R WCI  17
$$
MNZ037-044-045-052-053-182300-
   East Central Minnesota

CITY           SKY/WX    TMP DP  RH WIND       PRES   REMARKS
PRINCETON      CLEAR     28  18  64 W14G20    29.92R WCI  17
MORA           PTCLDY    28  18  64 NW15G24   29.90R WCI  17
CAMBRIDGE      CLEAR     30  18  59 NW12G17   29.90R WCI  21
RUSH CITY      CLEAR     29  18  64 NW9G18    29.89R WCI  21
MOOSE LAKE     CLOUDY    27  16  63 NW9G21    29.86R WCI  17
HINCKLEY       FAIR      28  18  64 NW14G22   29.89R WCI  17
CLOQUET        CLOUDY    25  12  58 W16G24    29.84R WCI  12
MCGREGOR       CLOUDY    25  16  68 NW14G22   29.89R WCI  13
$$
MNZ071>073-080-081-089-090-097-098-182300-
   Southwest Minnesota

CITY           SKY/WX    TMP DP  RH WIND       PRES   REMARKS
MONTEVIDEO     CLEAR     30  14  51 N24G33    30.01R WCI  16
GRANITE FALLS  CLEAR     31  18  57 NW18G28   30.03R WCI  19
CANBY          CLEAR     32  15  49 W20G25    30.03R WCI  20
MARSHALL       CLEAR     31  15  52 NW21G31   30.01R WCI  18
REDWOOD FALLS  CLEAR     30  14  51 NW17G30   29.99R WCI  18
OLIVIA         CLEAR     30  19  64 NW20G30   29.98R WCI  18
PIPESTONE      CLEAR     30  12  47 N22G31    30.00R WCI  17
WINDOM         CLEAR     32  16  51 NW22      29.97R WCI  19
WORTHINGTON    CLEAR     33  15  47 NW18G31   29.99R WCI  22
JACKSON        CLEAR     32  18  55 NW24G35   29.97R WCI  19
SLAYTON        CLEAR     32  16  50 NW21G35   29.99R WCI  20
$$
MNZ065>067-074>077-082>085-091>093-182300-
   South Central Minnesota

CITY           SKY/WX    TMP DP  RH WIND       PRES   REMARKS
MANKATO        CLEAR     31  20  63 NW23G29   29.94R WCI  18
NEW ULM        CLEAR     28  18  64 NW26G33   29.96R WCI  13
ST JAMES       CLEAR     32  19  59 NW21G31   29.98R WCI  20
FAIRMONT       CLEAR     32  21  64 NW22G30   29.96R WCI  19
GLENCOE        CLEAR     31  21  65 W18G28    29.93R WCI  19
FARIBAULT      CLEAR     32  21  64 W17G23    29.90R WCI  21
OWATONNA       CLEAR     32  21  64 NW23G30   29.89R WCI  19
WASECA         CLEAR     32  21  64 NW20G26   29.92R WCI  20
ALBERT LEA     PTCLDY    30  19  64 NW18G26   29.89R WCI  18
$$
MNZ078>079-086>088-094>096-182300-
   Southeast Minnesota

CITY           SKY/WX    TMP DP  RH WIND       PRES   REMARKS
ROCHESTER      CLOUDY    33  24  69 NW25G31   29.84R WCI  20
RED WING       CLOUDY    36  18  48 NW15G23   29.86R
STANTON        PTCLDY    34  22  61 NW14G25   29.88R WCI  24
DODGE CENTER   CLOUDY    30  21  69 NW23G29   29.86R WCI  17
WINONA         PTCLDY    37  28  70 NW14G25   29.81R
AUSTIN         CLOUDY    32  21  64 NW22G31   29.86R WCI  19
PRESTON        PTCLDY    34  24  65 NW22G28   29.81R WCI  23
$$
ABBREVIATIONS USED IN REMARKS
   TC - TEMPERATURES IN CELSIUS
  WCI - WIND CHILL INDEX
   HX - HEAT INDEX
  VSB - VISIBILITY
$$




USA.gov is the U.S. government's official web portal to all federal, state and local government web resources and services.